ACA325 CYUL-CYYC

Flight info

Callsign ACA325
Flight time N/A
Altitude 34000
Route KESKA DCT BIPKO DCT IPSAK DCT OMEGI DCT RADEN DCT SPALD DCT LACTO DCT LEATS/N0452F360 DCT ILADA BIRKO6
Aircraft A320/M-SDE3FGHIRWY/LB1

Departure

Time 2026-05-05 02:43
Airport Montreal / Pierre Elliott Trudeau International Airport (CYUL)

Arrival

Time N/A
Airport Calgary International Airport (CYYC)
Time Latitude Longitude Altitude Speed Heading
2026-05-05 02:30 45.45882 -73.74544 105 ft 0 kts 178°
2026-05-05 02:38 45.45893 -73.74544 105 ft 4 kts 178°
2026-05-05 02:38 45.45920 -73.74546 103 ft 3 kts 178°
2026-05-05 02:38 45.45942 -73.74549 104 ft 4 kts 154°
2026-05-05 02:38 45.45957 -73.74572 103 ft 4 kts 95°
2026-05-05 02:39 45.45956 -73.74598 105 ft 0 kts 78°
2026-05-05 02:40 45.45958 -73.74587 104 ft 4 kts 78°
2026-05-05 02:41 45.45971 -73.74517 102 ft 10 kts 72°
2026-05-05 02:41 45.45994 -73.74432 104 ft 8 kts 65°
2026-05-05 02:41 45.45974 -73.74340 103 ft 14 kts 131°
2026-05-05 02:41 45.45885 -73.74264 102 ft 15 kts 143°
2026-05-05 02:42 45.45813 -73.74153 104 ft 15 kts 131°
2026-05-05 02:42 45.45822 -73.74069 103 ft 10 kts 42°
2026-05-05 02:42 45.45933 -73.73924 105 ft 45 kts 43°
2026-05-05 02:42 45.46332 -73.73395 112 ft 109 kts 42°
2026-05-05 02:43 45.47024 -73.72486 117 ft 159 kts 42°
2026-05-05 02:43 45.47907 -73.71344 462 ft 173 kts 45°
2026-05-05 02:43 45.48845 -73.70261 1073 ft 175 kts 22°
2026-05-05 02:43 45.50015 -73.69975 1536 ft 171 kts 339°
2026-05-05 02:44 45.50999 -73.70763 1913 ft 163 kts 302°
2026-05-05 02:44 45.51602 -73.72239 2061 ft 182 kts 283°
2026-05-05 02:44 45.52034 -73.74047 2200 ft 205 kts 283°
2026-05-05 02:44 45.52513 -73.76091 2420 ft 228 kts 283°
2026-05-05 02:45 45.53028 -73.78280 3029 ft 235 kts 283°
2026-05-05 02:45 45.53553 -73.80500 3789 ft 237 kts 283°
2026-05-05 02:45 45.54078 -73.82719 4609 ft 236 kts 283°
2026-05-05 02:45 45.54601 -73.84948 5323 ft 239 kts 283°
2026-05-05 02:46 45.55131 -73.87222 5979 ft 244 kts 283°
2026-05-05 02:46 45.55670 -73.89539 6619 ft 248 kts 283°
2026-05-05 02:46 45.56213 -73.91888 7261 ft 251 kts 283°
2026-05-05 02:46 45.56763 -73.94269 7922 ft 254 kts 283°
2026-05-05 02:47 45.57318 -73.96681 8571 ft 257 kts 284°
2026-05-05 02:47 45.57878 -73.99121 9219 ft 260 kts 284°
2026-05-05 02:47 45.58447 -74.01594 9837 ft 264 kts 284°
2026-05-05 02:47 45.59022 -74.04103 10334 ft 272 kts 284°
2026-05-05 02:48 45.59629 -74.06774 10458 ft 293 kts 284°
2026-05-05 02:48 45.60278 -74.09632 10590 ft 313 kts 285°
2026-05-05 02:48 45.60979 -74.12674 10714 ft 332 kts 287°
2026-05-05 02:48 45.62006 -74.15701 11057 ft 345 kts 298°
2026-05-05 02:49 45.63416 -74.18523 11604 ft 351 kts 302°
2026-05-05 02:49 45.64865 -74.21348 12166 ft 354 kts 302°
2026-05-05 02:49 45.66318 -74.24201 12758 ft 356 kts 302°
2026-05-05 02:49 45.67774 -74.27072 13362 ft 357 kts 301°
2026-05-05 02:50 45.69235 -74.29958 13900 ft 359 kts 301°
2026-05-05 02:50 45.70692 -74.32861 14416 ft 360 kts 299°
2026-05-05 02:50 45.71855 -74.36008 14930 ft 357 kts 288°
2026-05-05 02:50 45.72534 -74.39404 15450 ft 355 kts 278°
2026-05-05 02:51 45.72804 -74.42870 15965 ft 356 kts 274°
2026-05-05 02:51 45.73041 -74.46402 16485 ft 358 kts 274°
2026-05-05 02:51 45.73290 -74.49957 16982 ft 360 kts 275°
2026-05-05 02:51 45.73544 -74.53523 17493 ft 362 kts 275°
2026-05-05 02:52 45.73800 -74.57116 17967 ft 364 kts 274°
2026-05-05 02:52 45.74053 -74.60733 18369 ft 366 kts 274°
2026-05-05 02:52 45.74304 -74.64371 18756 ft 369 kts 274°
2026-05-05 02:52 45.74557 -74.68087 19144 ft 371 kts 274°
2026-05-05 02:53 45.74804 -74.71729 19508 ft 374 kts 274°
2026-05-05 02:53 45.75053 -74.75440 19859 ft 376 kts 274°
2026-05-05 02:53 45.75300 -74.79182 20220 ft 378 kts 274°
2026-05-05 02:53 45.75549 -74.82939 20579 ft 380 kts 275°
2026-05-05 02:54 45.75879 -74.86705 20940 ft 383 kts 280°